KJ6APE Weather Reports


time (UTC)temp
F
wind
direction
speed
knots
gust
knots
rain 1hr
in
rain 24hr
in
rain mn
in
humidity
%
barometer
mb
20260506191657 72 325 1.7 3.5 0.00 0.00 0.00 53 1020.3
20260506191153 72 29 2.6 2.6 0.00 0.00 0.00 55 1020.2
20260506190651 72 34 0.0 0.9 0.00 0.00 0.00 56 1020.3
20260506190147 73 349 2.6 3.5 0.00 0.00 0.00 54 1020.2
20260506185644 72 73 0.9 0.9 0.00 0.00 0.00 56 1020.1
20260506185140 71 343 2.6 3.5 0.00 0.00 0.00 55 1020.5
20260506184638 71 51 1.7 2.6 0.00 0.00 0.00 56 1020.3
20260506184135 72 74 1.7 1.7 0.00 0.00 0.00 54 1020.3
20260506183632 71 93 0.9 0.9 0.00 0.00 0.00 57 1020.5
20260506183127 71 78 0.9 0.9 0.00 0.00 0.00 54 1020.6
20260506182625 70 88 0.9 0.9 0.00 0.00 0.00 55 1020.4
20260506182122 70 63 1.7 1.7 0.00 0.00 0.00 57 1020.6
20260506181620 70 124 0.9 0.9 0.00 0.00 0.00 56 1020.5
20260506181117 70 70 0.0 0.9 0.00 0.00 0.00 56 1020.7
20260506180614 71 70 0.0 0.0 0.00 0.00 0.00 54 1020.6
20260506180110 71 89 0.0 0.9 0.00 0.00 0.00 55 1020.6
20260506175606 70 94 0.0 0.0 0.00 0.00 0.00 57 1020.6
20260506175102 69 69 0.9 0.9 0.00 0.00 0.00 57 1020.7
20260506174602 69 87 0.0 0.9 0.00 0.00 0.00 58 1020.6
20260506174057 69 90 0.9 1.7 0.00 0.00 0.00 59 1020.6
20260506173555 68 77 0.0 0.0 0.00 0.00 0.00 61 1020.7
20260506173052 68 28 2.6 3.5 0.00 0.00 0.00 59 1020.7
20260506172549 68 84 0.0 0.0 0.00 0.00 0.00 59 1020.8
20260506172045 68 127 0.9 1.7 0.00 0.00 0.00 58 1020.7
20260506171543 68 69 0.9 0.9 0.00 0.00 0.00 59 1020.7
20260506171041 68 63 0.9 0.9 0.00 0.00 0.00 59 1020.6
20260506170538 67 87 0.0 0.0 0.00 0.00 0.00 59 1020.9
20260506170035 67 95 0.9 1.7 0.00 0.00 0.00 60 1020.7
20260506165534 67 89 0.9 0.9 0.00 0.00 0.00 61 1020.7
20260506165029 66 88 0.9 0.9 0.00 0.00 0.00 63 1020.9
20260506164526 65 88 0.0 0.0 0.00 0.00 0.00 65 1020.5
20260506164024 65 166 2.6 3.5 0.00 0.00 0.00 64 1020.8
20260506163520 64 89 1.7 2.6 0.00 0.00 0.00 64 1020.7
20260506163015 64 100 0.9 1.7 0.00 0.00 0.00 64 1020.9
20260506162512 64 96 0.9 1.7 0.00 0.00 0.00 67 1020.9
20260506162009 63 85 0.9 0.9 0.00 0.00 0.00 68 1020.8
20260506161507 64 94 0.9 1.7 0.00 0.00 0.00 65 1021.1
20260506161004 64 75 0.0 0.9 0.00 0.00 0.00 65 1020.9
20260506160501 63 95 0.0 0.9 0.00 0.00 0.00 66 1021.0
20260506155958 62 79 0.0 0.0 0.00 0.00 0.00 68 1021.0
20260506155457 63 104 0.9 1.7 0.00 0.00 0.00 68 1020.9
20260506153628 62 78 0.0 0.9 0.00 0.00 0.00 69 1021.1
20260506153125 62 91 0.9 0.9 0.00 0.00 0.00 68 1021.1
20260506152622 61 85 0.0 0.0 0.00 0.00 0.00 70 1021.0
20260506152120 61 131 0.9 1.7 0.00 0.00 0.00 70 1021.2
20260506151618 61 106 1.7 2.6 0.00 0.00 0.00 70 1021.1
20260506151115 61 91 0.9 0.9 0.00 0.00 0.00 71 1020.9
20260506150612 60 102 0.9 0.9 0.00 0.00 0.00 72 1021.0
20260506150109 61 71 0.9 0.9 0.00 0.00 0.00 71 1021.0
20260506145606 61 82 0.0 0.0 0.00 0.00 0.00 71 1020.9
20260506145103 60 89 0.0 0.0 0.00 0.00 0.00 72 1020.9
20260506144559 59 83 0.0 0.0 0.00 0.00 0.00 76 1021.0
20260506144056 57 87 0.0 0.0 0.00 0.00 0.00 79 1020.9
20260506143554 57 93 0.0 0.0 0.00 0.00 0.00 80 1021.1
20260506143052 56 94 0.0 0.0 0.00 0.00 0.00 81 1020.9
20260506142550 56 94 0.0 0.0 0.00 0.00 0.00 82 1020.8
20260506142048 56 94 0.0 0.0 0.00 0.00 0.00 82 1020.5
20260506141545 56 90 0.0 0.0 0.00 0.00 0.00 84 1020.8
20260506141043 55 90 0.0 0.0 0.00 0.00 0.00 85 1020.7
20260506140541 55 90 0.0 0.0 0.00 0.00 0.00 85 1020.8
20260506140038 55 89 0.0 0.0 0.00 0.00 0.00 86 1020.4
20260506135534 55 89 0.0 0.0 0.00 0.00 0.00 86 1020.4
20260506135031 54 89 0.0 0.0 0.00 0.00 0.00 87 1020.3
20260506134527 54 91 0.0 0.0 0.00 0.00 0.00 87 1020.5
20260506134023 54 91 0.0 0.0 0.00 0.00 0.00 87 1020.4
20260506133521 54 91 0.0 0.0 0.00 0.00 0.00 88 1020.3
20260506133017 54 91 0.0 0.0 0.00 0.00 0.00 87 1020.4
20260506132515 54 91 0.0 0.0 0.00 0.00 0.00 87 1020.2
20260506132012 54 91 0.0 0.0 0.00 0.00 0.00 87 1020.2
20260506131509 54 91 0.0 0.0 0.00 0.00 0.00 86 1020.1
20260506131005 54 91 0.0 0.0 0.00 0.00 0.00 86 1020.1
20260506130502 54 91 0.0 0.0 0.00 0.00 0.00 85 1020.1
20260506125959 54 91 0.0 0.0 0.00 0.00 0.00 85 1020.2
20260506125458 55 91 0.0 0.0 0.00 0.00 0.00 85 1020.0
20260506124955 55 91 0.0 0.0 0.00 0.00 0.00 84 1020.0
20260506124453 55 91 0.0 0.0 0.00 0.00 0.00 84 1020.0
20260506123951 55 91 0.0 0.0 0.00 0.00 0.00 84 1020.1
20260506123448 55 91 0.0 0.0 0.00 0.00 0.00 84 1020.0
20260506122946 55 91 0.0 0.0 0.00 0.00 0.00 84 1020.1
20260506122443 55 91 0.0 0.0 0.00 0.00 0.00 83 1019.8
20260506121941 55 91 0.0 0.0 0.00 0.00 0.00 83 1019.8
20260506121437 55 91 0.0 0.0 0.00 0.00 0.00 83 1019.9
20260506120934 55 91 0.0 0.0 0.00 0.00 0.00 84 1019.9
20260506120432 55 94 0.0 0.0 0.00 0.00 0.00 83 1019.9
20260506115929 55 94 0.0 0.0 0.00 0.00 0.00 84 1019.9
20260506115427 55 95 0.0 0.0 0.00 0.00 0.00 84 1020.0
20260506114926 55 95 0.0 0.0 0.00 0.00 0.00 84 1019.8
20260506114423 55 91 0.0 0.0 0.00 0.00 0.00 84 1019.8
20260506113921 55 91 0.0 0.0 0.00 0.00 0.00 84 1019.8
20260506113418 55 91 0.0 0.0 0.00 0.00 0.00 84 1019.8
20260506112914 55 91 0.0 0.0 0.00 0.00 0.00 84 1019.8
20260506112413 55 91 0.0 0.0 0.00 0.00 0.00 84 1019.6
20260506111909 55 91 0.0 0.0 0.00 0.00 0.00 84 1019.5
20260506111408 55 91 0.0 0.0 0.00 0.00 0.00 84 1019.6
20260506110904 55 92 0.0 0.0 0.00 0.00 0.00 84 1019.6
20260506110402 55 92 0.0 0.0 0.00 0.00 0.00 84 1019.5
20260506105858 55 92 0.0 0.0 0.00 0.00 0.00 84 1019.5
20260506105355 55 92 0.0 0.0 0.00 0.00 0.00 84 1019.3
20260506104852 55 92 0.0 0.0 0.00 0.00 0.00 84 1019.3
20260506104350 55 92 0.0 0.0 0.00 0.00 0.00 83 1019.4
20260506103848 55 92 0.0 0.0 0.00 0.00 0.00 83 1019.6
20260506103345 55 92 0.0 0.0 0.00 0.00 0.00 83 1019.4
20260506102842 55 92 0.0 0.0 0.00 0.00 0.00 83 1019.4
20260506102340 55 92 0.0 0.0 0.00 0.00 0.00 83 1019.3
20260506101837 55 94 0.0 0.0 0.00 0.00 0.00 83 1019.3
20260506101333 55 90 0.0 0.0 0.00 0.00 0.00 83 1019.3
20260506100831 55 91 0.0 0.0 0.00 0.00 0.00 83 1019.4
20260506100329 55 93 0.0 0.0 0.00 0.00 0.00 83 1019.2
20260506095827 55 93 0.0 0.0 0.00 0.00 0.00 83 1019.4
20260506095324 55 96 0.0 0.0 0.00 0.00 0.00 83 1019.4
20260506094821 55 94 0.0 0.0 0.00 0.00 0.00 84 1019.3
20260506094319 55 94 0.0 0.0 0.00 0.00 0.00 84 1019.3
20260506093817 55 95 0.0 0.0 0.00 0.00 0.00 84 1019.3
20260506093314 54 94 0.0 0.0 0.00 0.00 0.00 85 1019.2
20260506092812 54 91 0.0 0.0 0.00 0.00 0.00 85 1019.3
20260506092309 54 91 0.0 0.0 0.00 0.00 0.00 85 1019.4
20260506091806 54 94 0.0 0.0 0.00 0.00 0.00 85 1019.3
20260506091304 54 95 0.0 0.0 0.00 0.00 0.00 85 1019.1
20260506090802 54 91 0.0 0.0 0.00 0.00 0.00 86 1019.3
20260506090258 54 100 0.0 0.0 0.00 0.00 0.00 86 1019.3
20260506085755 54 87 0.0 0.0 0.00 0.00 0.00 85 1019.3
20260506085251 54 95 0.0 0.0 0.00 0.00 0.00 86 1019.3
20260506084748 53 87 0.0 0.0 0.00 0.00 0.00 86 1019.5
20260506084244 53 85 0.0 0.0 0.00 0.00 0.00 87 1019.4
20260506083741 53 85 0.0 0.0 0.00 0.00 0.00 87 1019.2
20260506083239 53 86 0.0 0.0 0.00 0.00 0.00 87 1019.2
20260506082736 53 78 0.0 0.0 0.00 0.00 0.00 87 1019.5
20260506082232 52 80 0.0 0.0 0.00 0.00 0.00 88 1019.3
20260506081730 52 96 0.0 0.0 0.00 0.00 0.00 89 1019.2
20260506081227 52 92 0.0 0.0 0.00 0.00 0.00 89 1019.2
20260506080725 52 96 0.0 0.0 0.00 0.00 0.00 89 1019.1
20260506080221 52 95 0.0 0.0 0.00 0.00 0.00 89 1019.3
20260506073205 52 91 0.0 0.0 0.00 0.00 0.00 87 1019.0
20260506072702 52 91 0.0 0.0 0.00 0.00 0.00 86 1019.1
20260506072159 53 91 0.0 0.0 0.00 0.00 0.00 86 1019.0
20260506071657 53 91 0.0 0.0 0.00 0.00 0.00 86 1019.1
20260506071155 53 90 0.0 0.0 0.00 0.00 0.00 85 1018.9
20260506070651 53 79 0.0 0.0 0.00 0.00 0.00 85 1019.0
20260506070148 53 95 0.0 0.0 0.00 0.00 0.00 85 1019.0
20260506062125 55 91 0.0 0.0 0.00 0.11 0.11 80 1018.5
20260506061621 55 99 0.0 0.9 0.00 0.11 0.11 80 1018.4
20260506061119 55 98 0.0 0.0 0.00 0.11 0.11 79 1018.7
20260506060618 56 136 2.6 2.6 0.00 0.11 0.11 79 1018.5
20260506060114 56 105 0.9 1.7 0.00 0.11 0.11 79 1018.4
20260506051046 57 96 0.9 0.9 0.00 0.11 0.11 76 1018.0
20260506050544 57 115 0.9 0.9 0.00 0.11 0.11 75 1017.9
20260506045034 58 120 1.7 1.7 0.00 0.11 0.11 75 1017.8
20260506044532 58 131 1.7 2.6 0.00 0.11 0.11 75 1018.0
20260506044029 58 102 0.9 0.9 0.00 0.11 0.11 75 1017.9
20260506043526 58 93 0.0 0.0 0.00 0.11 0.11 75 1017.8
20260506043024 58 87 0.0 0.0 0.00 0.11 0.11 74 1017.7
20260506042523 58 142 2.6 3.5 0.00 0.11 0.11 73 1017.6
20260506042021 58 85 0.9 1.7 0.00 0.11 0.11 73 1017.8
20260506041519 58 341 1.7 3.5 0.00 0.11 0.11 74 1017.4
20260506041015 58 80 0.0 0.9 0.00 0.11 0.11 74 1017.4
20260506040514 58 105 0.9 0.9 0.00 0.11 0.11 74 1017.2
20260506040009 59 96 0.0 0.9 0.00 0.11 0.11 75 1017.3
20260506035506 59 92 0.0 0.0 0.00 0.11 0.11 75 1017.2
20260506035003 59 329 1.7 2.6 0.00 0.11 0.11 74 1017.2
20260506034500 59 100 0.9 2.6 0.00 0.11 0.11 74 1017.1
20260506033957 59 89 0.9 1.7 0.00 0.11 0.11 74 1017.1
20260506033455 59 100 0.9 0.9 0.00 0.11 0.11 73 1016.9
20260506032951 59 103 0.9 0.9 0.00 0.11 0.11 73 1016.9
20260506032449 59 185 3.5 5.2 0.00 0.11 0.11 72 1017.0
20260506031945 59 84 0.0 0.9 0.00 0.11 0.11 73 1016.6
20260506031442 59 93 0.0 0.0 0.00 0.11 0.11 72 1016.5
20260506030940 59 96 0.9 0.9 0.00 0.11 0.11 72 1016.6
20260506030438 59 86 0.0 0.0 0.00 0.11 0.11 72 1016.4
20260506025934 60 75 0.9 1.7 0.00 0.11 0.11 71 1016.5
20260506025431 60 56 1.7 1.7 0.00 0.11 0.11 71 1016.4
20260506024928 60 179 4.3 5.2 0.00 0.11 0.11 70 1016.3
20260506024425 60 81 0.9 0.9 0.00 0.11 0.11 70 1016.3
20260506023921 60 142 0.9 1.7 0.00 0.11 0.11 70 1016.3
20260506023418 60 101 1.7 2.6 0.00 0.11 0.11 70 1016.3
20260506022914 60 94 0.9 0.9 0.00 0.11 0.11 70 1016.3
20260506022412 60 178 1.7 1.7 0.00 0.11 0.11 70 1016.2
20260506021910 60 208 5.2 7.8 0.00 0.11 0.11 70 1016.1
20260506021407 61 83 0.0 0.9 0.00 0.11 0.11 70 1016.0
20260506020903 61 95 0.0 0.9 0.00 0.11 0.11 70 1016.1
20260506020402 61 71 1.7 2.6 0.00 0.11 0.11 70 1016.0
20260506015859 61 129 2.6 5.2 0.00 0.11 0.11 69 1015.8
20260506015356 61 138 2.6 3.5 0.00 0.11 0.11 69 1015.7
20260506014853 61 87 0.9 1.7 0.00 0.11 0.11 69 1015.9
20260506014350 62 185 2.6 5.2 0.00 0.11 0.11 69 1015.8
20260506013846 62 74 0.0 0.9 0.00 0.11 0.11 70 1015.9
20260506013344 62 127 0.9 1.7 0.00 0.11 0.11 69 1015.6
20260506012840 62 194 0.9 2.6 0.00 0.11 0.11 69 1015.7
20260506012337 62 183 1.7 2.6 0.00 0.11 0.11 68 1015.6
20260506011834 62 180 1.7 2.6 0.00 0.11 0.11 69 1015.9
20260506011331 62 164 2.6 2.6 0.00 0.11 0.11 69 1015.8
20260506010828 63 141 2.6 3.5 0.00 0.11 0.11 69 1015.8
20260506010326 63 139 2.6 3.5 0.00 0.11 0.11 68 1015.7
20260506005823 64 153 0.9 0.9 0.00 0.11 0.11 68 1015.6
20260506005320 64 160 1.7 2.6 0.00 0.11 0.11 66 1015.7
20260506004816 65 110 1.7 2.6 0.00 0.11 0.11 66 1015.5
20260506004314 64 80 0.9 0.9 0.00 0.11 0.11 68 1015.7
20260506003809 64 141 1.7 2.6 0.00 0.11 0.11 67 1015.6
20260506003306 64 149 5.2 6.1 0.00 0.11 0.11 66 1015.5
20260506002802 64 82 2.6 5.2 0.00 0.11 0.11 67 1015.4
20260506002259 64 183 3.5 6.1 0.00 0.11 0.11 67 1015.5
20260506001754 64 102 1.7 2.6 0.00 0.11 0.11 68 1015.5
20260506001252 64 170 1.7 2.6 0.00 0.11 0.11 68 1015.5
20260506000749 64 169 1.7 3.5 0.00 0.11 0.11 68 1015.3
20260506000247 64 183 2.6 7.0 0.00 0.11 0.11 67 1015.4
20260505235743 64 49 2.6 2.6 0.00 0.11 0.11 67 1015.5
20260505235241 64 149 2.6 2.6 0.00 0.11 0.11 67 1015.4
20260505234737 64 144 0.9 1.7 0.00 0.11 0.11 67 1015.4
20260505234235 64 169 4.3 6.1 0.00 0.11 0.11 66 1015.3
20260505233731 64 141 2.6 5.2 0.00 0.11 0.11 66 1015.5
20260505233230 64 190 3.5 3.5 0.00 0.11 0.11 66 1015.4
20260505232726 64 104 0.9 1.7 0.00 0.11 0.11 67 1015.5
20260505232224 64 182 1.7 2.6 0.00 0.11 0.11 67 1015.5
20260505231720 64 99 0.0 0.0 0.00 0.11 0.11 67 1015.5
20260505231219 63 98 0.0 0.0 0.00 0.11 0.11 67 1015.4
20260505230717 63 86 0.0 0.9 0.00 0.11 0.11 67 1015.7
20260505230213 63 112 1.7 1.7 0.00 0.11 0.11 68 1015.6
20260505225710 63 144 2.6 2.6 0.00 0.11 0.11 67 1015.6
20260505225207 63 153 1.7 1.7 0.00 0.11 0.11 68 1015.5
20260505224702 64 87 0.0 0.9 0.00 0.11 0.11 67 1015.6
20260505224200 64 87 0.0 0.9 0.00 0.11 0.11 67 1015.7
20260505223658 64 92 0.0 0.9 0.00 0.11 0.11 67 1015.4
20260505223153 64 131 2.6 3.5 0.00 0.11 0.11 67 1015.5
20260505222649 64 83 0.9 1.7 0.00 0.11 0.11 67 1015.6
20260505222146 64 80 0.0 0.9 0.00 0.11 0.11 68 1015.7
20260505221643 63 96 0.9 0.9 0.00 0.11 0.11 69 1015.6
20260505221139 63 85 0.0 0.0 0.00 0.11 0.11 69 1015.6
20260505220637 63 80 0.9 1.7 0.00 0.11 0.11 68 1015.7
20260505220135 63 109 1.7 2.6 0.00 0.11 0.11 69 1016.0
20260505215632 63 95 0.9 1.7 0.00 0.11 0.11 70 1015.7
20260505215130 63 93 2.6 3.5 0.00 0.11 0.11 69 1015.7
20260505214628 63 184 2.6 3.5 0.00 0.11 0.11 69 1015.5
20260505214125 63 82 0.0 0.0 0.00 0.11 0.11 69 1015.8
20260505213622 63 90 0.0 0.0 0.00 0.11 0.11 70 1015.7
20260505213119 63 105 0.9 0.9 0.00 0.11 0.11 69 1015.7
20260505212615 63 76 0.0 0.0 0.00 0.11 0.11 70 1015.8
20260505212113 63 90 0.9 0.9 0.00 0.11 0.11 69 1016.0
20260505211609 63 112 0.0 0.9 0.00 0.11 0.11 69 1016.1
20260505211107 63 79 0.0 0.9 0.00 0.11 0.11 69 1016.0
20260505210603 63 84 0.0 0.0 0.00 0.11 0.11 69 1016.0
20260505210100 63 115 0.9 0.9 0.00 0.11 0.11 69 1015.9
20260505205558 64 168 1.7 2.6 0.00 0.11 0.11 68 1015.9
20260505205055 64 116 1.7 1.7 0.00 0.11 0.11 67 1016.0
20260505204552 64 93 0.0 0.0 0.00 0.11 0.11 68 1016.1
20260505204049 63 84 0.0 0.0 0.00 0.11 0.11 69 1015.9
20260505203546 63 87 0.0 0.0 0.00 0.11 0.11 72 1016.1
20260505203043 62 120 1.7 1.7 0.00 0.11 0.11 69 1016.1
20260505202539 62 79 0.0 0.0 0.00 0.11 0.11 71 1016.1
20260505202035 62 93 0.9 0.9 0.00 0.11 0.11 72 1016.0
20260505201532 62 179 0.9 1.7 0.00 0.11 0.11 71 1016.0
20260505201030 62 116 0.9 0.9 0.00 0.11 0.11 72 1016.1
20260505200527 62 109 1.7 1.7 0.00 0.11 0.11 70 1016.1
20260505200024 62 92 0.9 1.7 0.00 0.11 0.11 70 1016.3
20260505195520 61 86 0.0 0.0 0.00 0.11 0.11 72 1016.3
20260505195018 61 108 0.9 0.9 0.00 0.11 0.11 72 1016.4
20260505194516 62 66 0.9 0.9 0.00 0.11 0.11 70 1016.3
20260505194016 62 78 0.9 0.9 0.00 0.11 0.11 71 1016.1
20260505193514 62 89 0.0 0.0 0.00 0.11 0.11 71 1016.3
20260505193011 62 94 0.0 0.0 0.00 0.11 0.11 72 1016.3
20260505192509 61 89 0.0 0.0 0.00 0.11 0.11 72 1016.2
20260505192006 61 91 0.0 0.0 0.00 0.11 0.11 74 1016.2